Weather History for Caslav, Czech Republic

Change the Weather History Date:

Tuesday, October 23, 2012

  Actual Average Record
Temperature  
Mean Temperature 49 °F -  
Max Temperature 50 °F - - ()
Min Temperature 48 °F - - ()
Degree Days  
Heating Degree Days 16    
Moisture  
Dew Point 48 °F    
Average Humidity 98    
Maximum Humidity 100    
Minimum Humidity 93    
Precipitation  
Precipitation 0.00 in - - ()
Sea Level Pressure  
Sea Level Pressure 30.28 in    
Wind  
Wind Speed 1 mph ()    
Max Wind Speed 4 mph    
Max Gust Speed -    
Visibility 0.7 miles    
Events Fog    
T = Trace of Precipitation, MM = Missing Value Source: Averaged Metar Reports

Daily Weather History Graph

Daily Weather History Graph

Search for Another Location

Airport:

Trip Planner

Search our weather history database for the weather conditions in past years. The results will help you decide how hot, cold, wet, or windy it might be!

Date:

Astronomy

Oct. 23, 2012 Rise Set
Actual Time 7:33 AM CEST 5:51 PM CEST
Civil Twilight 7:00 AM CEST 6:24 PM CEST
Nautical Twilight 6:22 AM CEST 7:01 PM CEST
Astronomical Twilight 5:45 AM CEST 7:39 PM CEST
Moon 2:56 PM CEST (10/23) 12:30 AM CEST (10/23)
Length of Visible Light 11h 23m
Length of Day
10h 17m
Waxing Gibbous, 64% of the Moon is Illuminated
Oct 23
Waxing Gibbous
Oct 29
Full
Nov 7
Last Quarter
Nov 13
New
Nov 20
First Quarter

Hourly Weather History & Observations

Time (CEST) Temp. Dew Point Humidity Pressure Visibility Wind Dir Wind Speed Gust Speed Precip Events Conditions
12:00 AM 50.0 °F 50.0 °F 100% 30.27 in 0.6 mi NE 1.2 mph - N/A Fog Fog
12:32 AM 50.0 °F 50.0 °F 100% 30.27 in 0.3 mi NE 1.2 mph - N/A Fog Fog
1:00 AM 50.0 °F 50.0 °F 100% 30.27 in 0.2 mi ENE 2.3 mph - N/A Fog Fog
2:00 AM 50.0 °F 48.2 °F 94% 30.27 in 0.2 mi ENE 1.2 mph - N/A Fog Fog
3:00 AM 50.0 °F 50.0 °F 100% 30.27 in 0.2 mi Calm Calm - N/A Fog Fog
4:23 AM 48.2 °F 48.2 °F 100% 30.27 in 0.4 mi Variable 1.2 mph - N/A Fog Fog
5:00 AM 48.2 °F 48.2 °F 100% 30.27 in 0.4 mi North 1.2 mph - N/A Fog Fog
6:00 AM 48.2 °F 48.2 °F 100% 30.27 in 0.4 mi North 2.3 mph - N/A Fog Fog
7:00 AM 48.2 °F 48.2 °F 100% 30.27 in 0.2 mi North 3.5 mph - N/A Fog Fog
8:00 AM 48.2 °F 48.2 °F 100% 30.27 in 0.2 mi Variable 2.3 mph - N/A Fog Fog
9:00 AM 48.2 °F 48.2 °F 100% 30.30 in 0.3 mi NE 2.3 mph - N/A Fog Fog
10:00 AM 48.2 °F 48.2 °F 100% 30.30 in 0.3 mi North 2.3 mph - N/A Fog Fog
12:00 PM 48.2 °F 48.2 °F 100% 30.30 in 0.3 mi Variable 2.3 mph - N/A Fog Fog
12:19 PM 48.2 °F 48.2 °F 100% 30.30 in 0.6 mi North 2.3 mph - N/A   Overcast
1:00 PM 48.2 °F 48.2 °F 100% 30.30 in 0.6 mi Variable 2.3 mph - N/A   Overcast
2:00 PM 48.2 °F 48.2 °F 100% 30.30 in 0.9 mi Variable 2.3 mph - N/A   Overcast
3:00 PM 48.2 °F 46.4 °F 93% 30.27 in 0.9 mi Variable 2.3 mph - N/A   Overcast
4:00 PM 48.2 °F 46.4 °F 93% 30.27 in 1.2 mi Variable 2.3 mph - N/A   Overcast
5:00 PM 48.2 °F 46.4 °F 93% 30.27 in 1.2 mi Calm Calm - N/A   Overcast
6:00 PM 48.2 °F 46.4 °F 93% 30.27 in 1.2 mi Calm Calm - N/A   Overcast
7:00 PM 48.2 °F 46.4 °F 93% 30.27 in 1.2 mi Variable 2.3 mph - N/A   Overcast
8:00 PM 48.2 °F 46.4 °F 93% 30.27 in 1.2 mi Calm Calm - N/A   Overcast
9:00 PM 48.2 °F 46.4 °F 93% 30.27 in 1.2 mi NW 3.5 mph - N/A   Overcast
10:00 PM 48.2 °F 48.2 °F 100% 30.27 in 1.2 mi WNW 2.3 mph - N/A   Overcast
11:00 PM 48.2 °F 46.4 °F 93% 30.24 in 0.9 mi Variable 1.2 mph - N/A   Overcast